Location: Bergnerzell
(49.1816°N, 10.2565°E)
Time: 07:50:12
(UTC+00:00)

Cosmos 1825 - Pass Details

Date: 15 August 2024
Orbit: 422 x 426 km, 82.5° (Epoch: 08 September)

Event Time Altitude Azimuth Distance (km) Brightness Sun altitude
Rises 03:06:30 0° 337° (NNW) 2,403 5.8 -10.1°
Reaches altitude 10° 03:08:54 10° 319° (NW) 1,528 4.5 -9.8°
Maximum altitude 03:11:23 20° 271° (W) 1,057 3.3 -9.4°
Enters shadow 03:13:14 13° 230° (SW) 1,335 3.6 -9.2°
